Theta_e
313 312 312 311 310 311 311 312 312 312 313 313 313 313 315 315 313 313 316 318 317 319 322 323 323 326 327 327 328 328 329 332 332 332 335 335 333 335 341 342 340 339 339 340 340 340 340 339 339 338 337 337 337 337 337 337 336 335 334 334 333 331 330 330 328 326 326 325 323 322 321 320 318 318 318 318 317 315 314 313 312 311 311 311 311 310 310
314 313 313 312 310 311 311 311 313 313 313 313 314 314 316 316 315 316 317 317 318 320 322 323 324 326 326 327 328 328 330 333 331 330 331 331 330 334 340 341 340 339 338 340 340 339 339 339 338 337 337 336 337 337 337 336 336 335 333 333 332 331 330 329 326 325 324 323 321 320 320 319 318 318 318 317 316 315 314 313 311 311 311 311 310 310 310
314 314 313 313 312 311 311 311 312 313 313 313 314 314 316 316 315 316 317 316 318 319 322 325 326 326 326 327 328 327 328 332 333 333 331 330 331 336 339 340 340 338 338 340 339 338 339 339 338 337 336 336 336 337 336 335 335 334 333 332 332 331 330 328 326 324 323 321 321 320 319 318 318 318 317 317 316 314 313 312 311 311 311 310 310 310 310
315 315 315 315 315 314 313 312 312 313 313 314 314 314 316 316 315 316 315 314 316 319 322 325 326 326 325 326 328 329 329 330 334 335 332 331 333 337 339 339 339 338 338 339 339 339 339 339 338 337 337 336 336 337 336 334 334 333 333 333 332 331 330 329 326 323 322 321 320 320 319 318 317 317 316 316 315 314 313 312 311 311 311 310 310 310 310
317 318 318 317 316 315 315 314 314 315 314 315 315 315 315 316 316 316 315 315 318 320 322 323 322 323 327 328 328 329 330 331 333 335 335 335 336 337 338 339 338 337 338 339 340 340 339 339 338 337 336 336 336 336 335 334 333 332 333 333 332 331 330 328 325 323 322 322 321 320 319 318 317 316 315 315 315 313 312 312 311 311 311 311 310 311 310
319 320 320 319 317 315 316 316 316 316 315 314 315 315 315 316 316 316 316 317 319 319 319 321 320 321 328 330 327 327 329 331 334 335 336 337 337 338 338 339 338 338 338 339 339 339 339 338 337 336 336 336 335 335 335 333 332 332 332 332 331 330 329 327 325 323 322 322 322 320 318 317 316 316 315 314 314 312 312 312 312 311 311 310 310 310 310
318 318 318 319 317 316 318 317 316 316 316 315 315 315 316 316 315 316 317 317 318 318 318 318 318 322 328 329 326 326 327 330 334 336 337 338 338 339 339 338 338 338 338 339 339 339 338 338 337 336 335 335 335 334 334 333 332 331 331 330 330 329 327 326 325 322 320 319 320 318 317 316 315 315 314 313 313 312 312 312 312 311 311 310 310 310 309
318 317 316 317 318 319 320 320 317 316 316 316 316 316 316 316 316 316 316 315 316 317 317 316 317 323 328 326 324 327 329 330 334 337 338 339 338 338 338 338 338 339 339 339 339 339 337 337 337 336 336 335 334 333 333 331 331 330 330 329 328 327 325 324 323 321 319 318 317 316 316 315 315 315 314 313 313 312 312 312 311 310 310 310 310 310 309
317 317 316 316 317 318 319 320 318 317 317 317 316 315 315 316 317 316 315 316 316 316 317 317 317 324 327 323 321 327 332 333 335 337 338 338 337 337 337 338 338 339 340 339 339 338 338 337 337 336 335 335 333 333 332 331 330 330 330 329 327 327 325 324 322 320 318 317 316 315 315 314 314 315 314 313 313 312 311 311 310 309 309 309 310 310 309
317 317 318 317 315 317 320 322 321 321 322 322 318 315 315 317 317 316 316 316 317 316 317 316 318 325 326 321 320 329 335 335 335 338 338 337 336 336 337 337 337 337 339 339 338 337 337 337 336 334 333 333 332 331 331 330 330 330 330 329 328 327 325 323 320 318 317 317 316 316 315 314 314 314 314 313 312 310 310 309 308 308 308 308 308 309 308
317 318 319 317 317 321 326 326 324 323 323 323 320 315 314 316 316 316 317 316 316 317 317 317 321 325 322 319 326 335 337 336 336 338 337 337 337 336 337 337 337 336 337 337 337 336 336 336 335 333 332 332 331 331 330 330 329 329 329 329 328 325 322 320 319 318 317 317 316 315 315 314 313 313 313 311 310 309 308 308 307 306 306 306 307 307 307
318 318 318 316 319 325 327 327 326 323 321 322 320 315 315 318 318 316 316 316 317 317 318 318 322 323 323 327 335 339 337 336 337 337 337 337 337 336 337 336 336 336 336 336 336 335 335 335 334 332 331 331 331 330 330 330 330 330 329 329 327 325 322 321 320 319 318 316 315 315 314 313 312 311 311 309 308 308 307 307 306 305 304 304 304 304 305
318 318 317 316 320 325 326 326 325 322 321 321 318 317 322 328 327 320 316 316 317 317 319 320 320 324 330 335 337 338 337 337 336 336 337 337 337 336 336 336 336 336 336 336 335 335 335 334 333 332 332 331 331 330 329 330 330 329 328 327 325 323 321 320 319 318 317 316 315 314 313 312 311 310 309 308 308 307 306 306 305 303 302 301 301 302 303
318 318 317 317 320 324 326 325 322 320 321 319 319 324 330 331 331 329 325 322 320 320 321 321 322 328 336 336 334 336 338 337 336 335 335 336 336 335 335 336 336 336 335 335 335 334 334 334 334 333 332 332 331 331 330 330 329 327 325 324 322 320 319 318 317 316 315 315 314 313 312 311 310 309 308 307 307 306 305 304 303 302 300 300 301 302 304
317 318 317 317 320 324 327 325 322 321 323 323 325 330 331 328 329 332 330 328 328 326 324 325 328 334 338 336 334 336 337 336 336 336 335 334 334 335 335 335 335 336 335 335 335 334 333 333 333 332 331 331 331 331 331 331 330 329 327 324 322 321 319 317 316 314 314 313 312 312 311 310 309 308 307 306 306 305 304 303 302 301 300 300 302 303 304
318 318 319 320 322 325 327 326 325 326 326 327 329 332 331 329 330 330 329 330 331 328 328 331 334 336 338 337 336 337 338 337 337 337 336 335 335 335 336 335 335 335 335 335 335 334 333 332 332 331 331 331 330 330 330 330 329 328 327 324 322 320 318 316 315 314 313 312 311 310 310 309 308 307 306 306 306 305 305 304 303 303 302 302 303 303 304
318 318 320 321 323 325 327 327 328 330 329 328 330 331 330 330 330 330 331 333 333 331 332 334 335 336 337 337 337 337 338 337 337 336 336 336 335 335 335 335 335 334 335 334 334 334 333 333 332 331 331 331 330 329 329 327 325 325 323 321 320 318 317 316 315 313 312 311 310 310 309 308 308 307 306 306 306 305 305 305 304 303 303 302 302 302 303
319 320 321 321 322 325 327 326 328 329 328 327 328 329 329 329 330 331 332 334 335 334 333 332 333 334 336 337 337 337 336 336 336 336 335 336 336 335 335 335 335 334 334 334 334 334 333 332 331 331 331 330 329 329 327 325 323 322 321 319 319 318 317 316 314 312 311 310 309 308 308 308 308 307 306 306 306 306 305 304 304 303 302 301 301 301 301
320 321 322 322 322 325 327 326 326 327 326 325 326 327 328 329 329 331 332 332 333 334 332 331 332 334 336 337 336 336 335 335 336 336 335 334 334 334 334 334 334 334 334 334 334 333 332 331 331 331 331 330 329 329 327 324 322 321 320 319 318 318 317 315 313 311 310 309 308 308 307 308 308 308 307 307 307 306 304 304 303 302 302 301 301 301 302
322 322 323 323 323 324 325 325 324 325 325 325 326 326 327 327 327 329 331 332 332 332 332 332 332 333 336 336 336 336 335 334 335 335 334 334 334 334 335 334 333 333 334 333 333 333 332 331 331 330 331 330 329 328 326 324 322 320 319 318 318 317 316 313 312 311 310 309 309 308 307 307 308 307 306 306 306 305 304 304 303 302 301 301 300 301 303
322 323 325 324 323 323 324 323 323 324 324 324 324 325 326 326 325 326 328 330 331 332 332 332 332 333 334 334 334 335 334 334 334 334 334 334 334 334 335 334 333 333 333 333 333 332 331 331 330 330 330 330 328 326 324 322 321 319 317 317 316 316 314 313 311 311 310 309 309 309 307 307 307 307 306 306 306 305 304 304 303 301 302 302 301 302 303
321 322 323 324 324 324 324 323 323 323 324 323 323 323 324 324 324 325 325 326 328 330 330 331 331 332 333 333 333 334 334 334 334 333 334 335 335 335 335 334 333 333 333 333 332 331 331 330 330 330 330 329 328 326 323 321 319 317 315 316 315 314 313 312 311 311 311 309 310 310 309 308 308 307 305 305 306 306 305 304 303 302 302 302 302 302 301
322 321 322 323 324 324 323 323 323 323 324 324 322 322 322 323 324 324 324 325 326 327 328 329 329 329 331 332 334 334 334 334 334 334 334 334 334 335 335 334 333 333 333 333 332 331 331 331 330 330 330 328 327 325 322 320 319 317 316 316 315 313 312 311 310 311 312 310 310 311 310 309 308 307 305 305 305 305 305 304 302 302 302 301 301 300 299
322 323 323 323 323 323 323 323 323 322 323 323 323 323 322 321 322 322 323 324 325 326 326 327 328 329 330 332 333 334 333 333 334 335 334 333 334 334 334 333 333 333 333 332 331 330 330 330 330 329 328 327 326 323 321 321 320 318 317 317 315 314 313 311 310 310 310 310 309 310 309 308 307 307 306 305 304 303 303 303 302 302 301 300 300 299 298
322 322 323 323 322 322 323 324 323 322 322 322 324 324 322 322 321 321 321 322 324 325 326 326 328 329 330 331 332 333 332 332 333 333 332 331 332 332 332 332 333 333 332 332 331 330 330 330 329 328 328 326 324 322 321 320 320 319 318 317 316 314 313 312 309 309 309 309 309 309 309 308 307 307 306 306 305 303 302 301 302 302 301 300 300 299 298
322 321 321 322 322 322 323 322 323 323 322 322 323 323 322 322 323 321 320 321 322 324 325 326 327 329 330 331 331 332 331 331 330 331 331 331 330 330 331 331 332 332 332 331 331 330 329 329 329 328 327 325 323 321 320 321 320 319 318 318 317 315 314 312 310 309 309 310 310 309 309 308 308 307 307 307 307 305 301 300 300 300 299 299 299 299 298
321 320 321 323 323 323 322 322 322 323 322 322 322 321 321 322 323 322 322 322 322 323 325 326 327 328 329 330 331 330 330 330 329 329 330 330 330 330 330 331 332 331 331 331 330 329 329 328 328 327 326 325 322 321 321 321 320 319 319 319 318 316 314 312 311 310 309 310 309 309 309 308 307 307 307 307 307 305 302 301 300 300 299 298 297 297 297
319 321 322 323 323 324 324 322 322 322 322 321 321 320 320 321 322 322 322 322 321 322 324 325 326 327 327 328 329 328 328 328 327 328 330 330 330 330 330 330 330 330 330 330 329 328 327 327 326 325 325 324 323 322 321 321 321 320 320 320 318 315 312 312 311 310 309 309 308 308 309 309 308 308 307 306 305 304 303 302 302 302 301 300 298 297 297
320 321 321 322 322 323 323 321 321 321 321 320 320 319 319 320 320 321 322 321 322 322 323 324 325 326 326 328 328 327 327 326 326 327 328 329 329 329 329 329 329 329 329 328 327 326 325 325 324 323 323 322 322 322 321 321 322 322 321 320 319 316 313 312 312 311 310 309 308 308 308 308 308 307 306 305 305 305 304 304 304 303 303 302 300 298 297
320 320 320 321 321 321 321 321 321 321 320 319 320 319 318 319 320 321 321 321 322 322 323 323 324 325 326 327 328 327 327 327 326 327 327 327 328 328 328 327 327 327 327 326 325 324 325 324 323 323 322 321 321 321 321 321 322 322 321 320 319 316 314 314 313 312 311 310 308 307 307 307 307 306 305 305 305 305 305 305 304 304 304 304 302 300 298
320 319 320 320 320 320 321 321 320 320 319 319 319 319 318 319 320 321 321 321 321 322 323 323 323 324 325 326 327 327 327 327 327 326 326 326 327 327 327 327 327 327 327 326 325 324 324 324 323 323 322 320 320 321 321 322 322 321 321 319 317 314 313 313 313 312 311 310 308 307 307 307 307 306 305 304 304 304 305 305 304 304 304 304 303 302 301
319 319 320 320 319 320 321 320 320 319 319 319 318 318 318 319 320 320 320 321 321 321 322 322 323 324 324 325 326 326 326 326 327 327 326 326 326 326 326 327 326 326 327 326 325 325 324 323 323 323 323 321 321 322 322 321 321 320 320 319 316 313 311 311 311 311 311 310 309 308 308 307 307 306 305 304 304 304 305 305 304 304 304 304 304 304 303
318 318 319 319 319 320 320 320 319 319 318 318 318 318 318 318 319 319 319 319 319 319 320 321 322 323 324 324 324 324 325 325 326 326 326 325 325 325 325 325 325 326 326 326 325 325 324 323 323 323 322 321 321 321 321 321 320 319 319 319 317 312 310 310 310 310 310 309 308 309 309 308 307 307 306 304 304 304 304 304 305 304 304 304 304 304 303
319 319 319 318 318 319 320 319 318 318 317 317 317 317 317 317 317 317 317 317 317 317 317 318 319 320 321 322 323 324 324 324 324 325 325 325 325 324 324 324 324 325 325 325 325 325 324 323 323 322 321 320 320 320 320 320 319 318 318 318 316 312 310 310 310 310 310 309 308 309 308 308 307 308 307 306 305 304 304 304 305 305 305 304 304 304 302
318 319 319 318 318 318 318 318 317 317 317 317 316 316 316 316 316 316 316 315 315 315 315 316 316 316 317 319 321 322 322 322 322 324 325 324 324 324 323 323 323 323 324 324 325 324 324 323 322 321 320 320 319 320 319 319 318 317 317 317 315 313 311 310 310 311 311 310 309 309 308 307 307 307 307 306 305 304 304 304 304 304 304 304 304 303 302
317 318 318 318 317 317 317 317 317 317 316 317 316 316 316 316 315 315 315 315 315 315 315 315 315 315 316 316 318 319 320 319 320 321 321 322 323 323 322 322 322 323 323 323 323 323 323 322 321 321 320 320 320 320 319 319 318 318 317 316 314 312 311 310 310 311 310 310 309 309 308 307 307 306 305 305 305 304 304 304 303 303 304 304 303 303 302
317 317 318 318 318 317 317 317 317 316 316 317 317 316 316 316 316 315 315 314 314 314 314 314 315 315 315 315 316 316 316 316 317 317 317 319 321 322 322 322 322 322 322 322 321 321 321 320 320 320 320 320 320 319 318 318 318 318 317 316 314 313 311 310 310 310 310 310 309 309 307 307 307 306 305 305 305 305 305 304 303 303 303 303 303 303 302
318 318 318 317 317 317 317 317 317 317 317 317 317 317 316 316 315 314 314 314 313 313 313 313 313 314 314 314 315 315 315 315 316 317 318 319 321 323 323 322 321 321 321 320 320 319 318 317 317 319 319 319 319 319 318 317 317 317 317 316 315 314 312 311 311 310 310 310 309 309 308 307 307 307 306 305 305 305 304 304 303 303 303 302 302 302 302
317 317 318 317 316 317 318 317 317 318 318 317 317 316 315 315 314 314 314 313 312 312 313 313 313 313 314 314 315 315 315 316 317 319 319 320 321 321 320 319 318 318 319 319 319 317 315 314 315 317 318 318 319 318 316 315 315 316 316 316 316 314 313 312 312 311 311 310 310 309 309 308 308 308 308 307 306 305 304 304 303 303 304 303 303 303 302
316 316 317 317 317 317 318 317 317 318 318 316 316 315 314 314 314 314 313 313 312 312 312 313 313 313 313 314 314 315 314 315 317 318 318 319 320 319 319 318 317 315 315 316 317 315 313 314 315 317 317 317 317 316 315 314 314 314 315 315 315 314 313 313 312 311 311 310 309 309 309 309 308 308 308 307 306 305 305 304 304 304 304 303 303 303 302
315 315 315 316 316 316 317 316 316 317 316 315 314 314 313 313 314 313 313 312 312 312 312 312 312 312 312 312 312 313 313 313 315 316 317 318 318 318 318 317 316 314 313 313 313 312 313 314 315 316 317 317 316 314 313 312 312 313 314 315 314 314 313 313 312 311 311 310 309 309 309 309 308 308 308 307 306 305 305 305 304 303 303 302 303 303 303
315 316 317 316 316 317 317 316 315 315 315 314 314 313 313 313 313 312 312 311 311 311 311 310 310 310 311 311 311 311 312 312 313 314 316 317 317 316 317 316 313 311 311 312 312 312 314 315 315 314 315 315 314 313 312 311 312 313 314 314 314 313 313 312 312 311 311 310 309 309 309 308 308 307 307 306 305 305 305 304 303 303 302 302 303 303 303
315 315 316 316 316 316 316 316 315 314 314 313 313 312 312 312 311 311 311 310 310 310 311 310 309 310 311 312 312 311 312 312 312 313 314 315 315 315 315 314 312 310 310 312 313 314 314 314 313 313 312 313 312 311 311 311 312 313 313 313 313 313 312 311 311 311 311 310 309 309 308 308 307 307 306 305 305 305 304 304 303 303 303 303 303 303 302
314 314 315 316 315 314 314 315 314 313 312 312 312 311 311 310 310 310 309 310 309 310 310 310 311 311 311 311 311 311 312 312 312 312 312 312 313 313 312 312 311 310 310 311 313 314 313 312 311 311 311 310 310 310 311 312 312 313 312 312 312 312 311 311 310 310 310 310 309 308 307 307 306 306 305 305 305 305 304 304 304 304 303 303 303 303 302
314 315 315 315 314 313 313 312 312 311 310 310 310 310 309 309 310 309 309 309 310 310 310 310 311 311 311 311 312 312 312 312 312 313 312 312 312 312 311 310 310 309 309 310 312 312 311 310 309 309 309 309 309 309 311 312 312 312 311 312 311 311 311 311 310 310 310 309 308 308 307 307 306 306 306 305 305 305 305 305 305 304 304 303 303 303 302
315 314 313 313 312 312 311 310 310 310 310 309 309 309 309 309 309 309 309 309 310 310 310 310 311 311 311 311 311 312 311 311 312 312 312 311 310 309 309 309 309 308 308 310 311 310 308 307 307 307 308 308 308 309 311 312 312 311 311 311 311 311 311 311 310 310 309 309 308 308 307 307 307 307 306 306 306 305 305 305 304 304 304 303 303 303 303
314 313 312 311 311 310 309 309 309 309 309 309 309 309 310 309 309 309 309 309 309 309 310 310 310 310 310 311 311 311 311 310 310 311 311 310 309 307 307 307 307 306 307 308 308 307 306 306 306 306 307 307 308 309 311 311 311 311 311 311 311 310 310 310 310 309 308 308 307 307 307 306 306 307 307 306 305 305 305 304 304 304 304 303 303 303 303
313 312 311 310 309 309 309 309 309 309 309 309 309 309 309 309 309 309 309 309 309 309 308 309 309 309 309 309 309 309 309 309 309 309 309 309 309 309 308 307 306 306 307 307 307 306 306 306 306 306 306 307 308 309 310 310 310 310 311 310 310 310 309 309 308 308 308 307 307 306 306 306 306 306 306 306 305 305 304 304 304 304 304 303 303 303 303
312 311 310 309 309 308 309 309 309 309 309 309 309 309 309 309 309 309 308 309 309 308 308 307 307 307 307 306 306 306 307 307 307 308 308 308 309 309 307 306 306 307 308 309 308 306 305 306 306 306 306 307 308 309 310 309 310 310 309 309 309 309 309 308 308 308 307 307 306 306 306 306 306 306 306 306 305 305 304 304 304 303 303 303 303 303 303
311 310 310 309 309 309 309 309 308 308 309 309 309 309 309 309 309 309 309 309 308 308 307 307 306 306 306 306 305 305 305 305 306 306 307 307 308 308 308 308 307 307 308 308 308 306 305 305 306 306 306 307 308 309 309 309 309 308 308 308 308 308 307 307 307 307 307 307 306 306 306 306 306 306 306 305 305 304 304 304 303 303 303 303 303 303 303
310 310 310 310 309 309 309 309 308 308 309 309 308 308 309 309 309 309 308 309 308 308 308 307 306 306 306 306 306 306 306 305 305 305 305 305 306 307 307 307 307 307 307 308 308 307 307 307 306 306 307 308 308 308 308 308 308 307 307 307 307 307 307 307 307 307 307 307 306 306 306 306 305 305 305 305 304 304 304 303 303 303 303 303 302 302 302
311 311 311 310 310 309 309 308 308 308 308 308 308 308 308 309 309 308 308 308 308 308 308 307 307 307 306 306 306 306 306 306 306 306 305 305 305 306 306 307 307 307 307 307 307 307 307 307 306 306 307 308 308 307 307 307 307 307 307 307 307 307 306 306 306 306 306 306 306 306 306 305 305 305 304 304 304 304 303 303 303 303 303 303 302 302 302
Wind_Speed
4 3 3 13 17 16 16 16 17 19 20 19 18 16 14 11 8 9 11 10 8 9 12 11 9 7 7 7 6 4 6 10 12 11 11 13 15 18 19 20 21 21 20 21 20 19 22 26 27 24 23 25 25 25 25 26 27 27 26 27 28 27 29 30 27 26 26 25 23 22 22 22 21 19 19 18 16 16 16 16 16 16 16 16 16 16 16
4 4 5 8 13 15 17 18 17 19 19 18 17 15 14 14 10 8 9 11 10 8 10 11 8 5 6 7 6 5 6 9 12 13 14 15 17 19 20 20 20 20 20 22 22 21 23 27 27 26 25 26 26 24 24 24 24 27 28 27 27 28 28 28 26 26 26 24 22 22 22 22 21 20 19 18 16 16 16 16 16 16 16 16 16 16 16
5 8 8 8 10 12 14 17 18 18 18 17 17 15 14 13 12 11 11 11 12 9 7 10 6 2 3 4 4 5 6 8 13 16 17 17 18 19 19 19 20 19 20 22 23 22 24 28 29 28 26 26 26 25 24 23 23 26 27 26 27 28 27 26 25 25 25 23 22 22 22 21 20 19 18 17 16 16 17 17 17 17 17 17 17 17 17
4 7 7 8 8 9 12 15 17 18 18 16 15 15 14 14 14 14 14 11 9 7 6 8 4 2 2 4 5 4 4 6 11 15 17 19 18 17 18 18 19 19 20 22 23 22 24 28 29 28 27 26 27 27 25 24 25 26 26 25 27 27 26 25 25 24 24 23 23 22 21 21 21 22 21 20 19 18 18 18 18 17 17 17 17 16 17
3 5 5 6 8 9 10 12 15 16 17 16 15 15 16 17 15 13 11 10 7 5 6 7 5 3 1 1 2 1 1 4 8 12 15 17 17 17 17 18 18 19 19 20 23 23 25 28 28 28 28 28 27 27 26 25 26 26 24 24 26 26 24 25 24 23 24 24 23 21 22 23 23 22 23 22 20 19 18 17 17 17 16 16 16 16 16
4 4 3 3 7 8 6 8 14 16 15 16 16 15 16 17 15 11 10 13 12 7 5 5 3 0 1 0 2 2 2 3 6 10 12 14 15 15 16 18 18 18 18 19 22 25 26 27 27 27 27 26 26 25 25 25 26 26 23 21 23 24 24 24 24 24 25 25 23 23 25 26 24 22 22 22 19 18 18 17 16 16 17 16 16 16 16
5 5 3 4 7 5 1 3 10 15 15 15 15 14 15 16 16 14 15 17 16 10 8 9 5 2 1 3 5 4 4 4 6 9 11 13 14 15 16 17 17 18 17 18 21 25 25 25 26 26 25 25 25 24 24 24 25 25 24 23 24 25 24 25 25 25 26 27 27 27 28 27 24 23 24 21 19 18 17 17 16 16 16 16 16 16 16
5 4 4 4 1 3 3 1 5 11 14 15 13 12 14 16 16 16 18 18 16 12 10 10 7 2 2 6 6 5 6 6 6 8 10 12 14 14 14 15 16 18 18 19 22 23 24 25 26 25 25 26 26 24 24 24 24 25 25 24 25 25 25 25 25 25 28 32 32 28 26 26 24 23 22 21 19 18 17 16 15 14 15 15 15 15 15
6 4 3 4 3 1 4 3 3 6 8 11 12 10 11 14 15 16 17 17 15 13 11 11 7 2 4 9 7 7 7 6 6 7 9 12 13 14 14 15 18 20 22 23 23 21 20 23 24 23 24 26 26 25 24 24 24 25 26 26 25 25 25 25 24 26 29 33 33 29 28 28 26 22 22 21 20 18 17 16 15 13 13 13 13 13 14
6 5 4 5 5 2 3 3 1 1 3 5 9 9 8 11 15 16 16 16 15 13 12 12 6 1 5 9 4 6 7 6 7 8 9 12 13 14 15 16 18 21 22 24 25 22 21 22 21 22 24 24 24 24 24 24 24 25 25 26 26 26 25 24 24 26 28 31 33 32 33 33 27 22 21 22 23 23 23 22 19 16 13 11 11 12 13
6 5 5 4 1 1 2 3 2 1 3 2 6 8 8 10 15 16 15 15 15 12 11 10 4 2 6 6 2 6 7 8 8 9 11 12 13 14 17 17 19 20 21 24 25 25 24 23 22 23 25 24 23 23 22 24 25 24 24 26 26 26 24 24 24 24 25 28 31 34 36 34 27 22 23 25 26 26 24 24 22 19 15 12 10 9 10
6 5 6 3 2 2 3 6 4 1 2 4 7 7 5 5 11 15 15 14 13 12 11 8 4 4 6 3 3 5 7 9 10 10 11 13 13 14 17 19 20 21 22 23 24 24 25 25 24 26 26 25 24 23 23 25 26 25 25 26 26 25 24 24 23 23 23 24 26 31 36 34 28 26 27 27 25 21 18 18 19 20 19 17 14 12 10
6 6 6 3 2 3 4 8 5 1 4 7 8 5 2 6 5 8 12 13 13 11 8 5 4 5 2 3 4 5 8 11 11 11 12 13 14 15 17 20 21 20 21 22 22 23 24 25 26 26 26 24 23 22 23 24 23 22 23 23 23 22 21 22 21 21 22 23 25 30 34 31 26 25 25 24 21 18 16 18 20 22 23 21 19 17 15
6 5 5 3 2 3 6 9 3 2 5 5 3 1 5 8 7 3 1 6 8 8 7 6 5 3 4 6 6 8 9 11 12 12 13 14 15 16 18 21 22 21 20 21 21 22 23 25 26 26 25 24 23 22 23 23 21 22 23 22 22 21 20 20 20 22 25 26 27 31 32 28 25 24 23 21 20 18 18 20 21 22 21 19 17 16 15
5 5 5 4 1 2 8 9 2 2 1 2 4 5 5 5 4 3 2 1 3 5 6 6 5 3 5 5 8 10 11 12 12 13 13 14 14 15 18 20 21 21 20 21 22 22 22 24 25 24 24 23 21 20 21 21 21 23 23 22 21 20 19 19 19 23 27 27 28 30 31 29 28 26 23 20 19 18 18 19 18 17 17 17 15 15 15
3 3 3 2 1 3 7 7 2 2 3 4 6 5 4 4 4 1 2 2 3 4 5 6 5 4 5 5 8 10 11 11 12 13 13 13 14 16 17 19 21 21 20 21 22 23 22 22 23 23 23 21 19 19 19 19 20 22 22 21 20 19 18 18 18 21 26 28 28 30 29 28 27 25 23 21 19 18 19 18 17 16 16 16 16 15 14
4 5 3 1 1 2 4 4 4 5 4 3 6 6 3 4 5 3 2 3 4 4 6 6 4 4 5 7 9 10 11 11 11 12 13 14 15 16 18 20 21 20 20 21 21 21 21 22 22 21 20 20 19 20 19 19 19 21 20 19 19 18 17 16 17 20 25 27 27 28 28 27 26 24 24 22 20 19 19 18 17 17 16 16 16 15 15
5 5 6 3 1 2 3 3 3 5 6 5 6 6 5 5 6 4 4 5 5 5 6 6 4 4 6 9 10 10 10 11 11 12 13 14 15 17 18 20 20 19 19 20 20 19 20 21 21 19 18 19 20 20 19 20 21 20 19 18 18 17 16 16 17 21 25 25 24 25 25 24 22 21 22 21 19 18 18 17 16 16 15 15 15 15 16
4 2 1 2 2 3 3 3 3 5 7 7 6 6 6 6 6 7 6 6 5 5 5 5 6 6 7 9 10 10 10 10 11 11 12 13 14 15 17 18 19 18 18 19 19 19 18 19 19 19 19 19 19 19 19 20 21 20 19 18 17 17 17 16 18 22 25 25 23 22 21 19 18 18 19 20 19 18 17 16 15 15 14 15 16 16 16
3 2 2 2 2 2 3 4 5 6 6 7 6 7 8 8 8 9 9 7 6 5 4 5 7 7 7 8 9 10 10 10 9 10 11 12 12 14 16 18 18 16 16 18 19 18 18 19 18 18 18 18 18 19 20 20 21 20 19 18 17 17 17 17 18 20 22 23 21 19 18 18 17 17 19 19 18 18 19 18 17 17 17 17 17 17 16
1 5 3 0 3 1 1 3 5 5 6 6 7 8 9 10 11 11 11 10 9 8 7 8 8 8 7 7 8 8 10 11 10 9 9 10 12 13 15 16 16 14 15 18 19 19 18 18 18 18 18 17 19 20 19 19 20 20 19 18 17 17 16 16 18 18 18 19 19 17 17 17 16 16 20 21 18 16 18 19 19 19 19 18 17 17 16
1 3 4 3 1 0 1 2 4 6 6 6 7 9 10 10 10 11 11 11 10 10 10 9 8 7 6 6 6 7 8 9 11 10 10 10 12 13 14 14 14 13 13 16 18 18 18 18 18 18 17 17 19 19 19 19 20 21 21 19 16 16 15 15 17 18 17 17 18 17 17 18 17 16 19 20 19 16 17 19 20 19 19 17 16 16 16
0 2 3 3 2 2 2 3 6 8 7 5 7 9 10 9 9 9 9 9 10 10 11 10 9 8 6 5 7 8 8 8 9 9 10 10 11 12 13 13 13 13 13 15 17 17 17 17 17 17 16 17 18 18 19 19 20 21 22 19 16 15 15 15 19 21 18 17 19 18 18 18 18 16 17 19 20 18 17 19 21 20 19 17 16 17 16
1 4 5 3 4 4 1 2 3 5 8 6 7 9 8 8 8 8 8 7 7 8 8 9 9 8 7 8 9 9 9 8 8 8 8 9 11 12 12 13 13 14 14 16 17 17 16 16 16 16 16 17 18 18 18 18 19 20 20 18 16 16 15 16 21 22 18 18 20 19 17 18 17 16 16 17 18 17 15 16 20 21 20 20 19 19 18
4 1 5 6 6 6 2 3 4 3 5 4 5 7 8 7 7 7 7 5 5 6 7 7 8 8 8 8 8 8 8 9 9 9 8 8 9 11 11 11 13 14 14 16 17 16 16 16 16 17 17 17 17 17 17 18 18 18 18 17 16 17 16 17 20 20 18 17 18 17 17 17 16 16 16 16 16 15 14 15 18 21 22 21 21 20 20
6 4 2 6 6 4 4 4 3 2 2 0 3 6 7 6 5 5 6 7 5 5 5 5 6 8 8 7 7 8 9 9 8 8 8 7 7 8 10 11 13 13 13 15 17 17 16 16 16 17 17 17 17 16 17 17 17 17 17 16 16 17 18 18 19 19 18 17 18 17 16 16 15 16 16 16 15 15 15 15 16 18 20 22 21 20 20
5 5 2 3 5 5 6 5 3 1 1 1 3 5 5 2 1 2 5 5 4 4 4 5 6 7 8 8 8 8 8 8 7 7 7 7 7 7 9 10 11 11 11 13 14 14 14 14 15 17 16 15 16 16 16 17 16 16 16 15 14 16 18 18 17 18 17 18 18 18 16 15 15 15 15 13 14 16 18 17 16 15 17 21 23 23 22
5 4 2 1 3 4 5 6 4 3 2 2 2 3 3 2 2 3 3 2 2 3 3 4 5 6 6 7 7 7 6 6 6 7 7 7 7 7 9 10 10 9 10 11 11 11 12 12 14 15 14 14 15 15 15 16 16 15 15 15 13 15 17 16 15 16 16 17 17 18 17 16 15 15 14 13 13 16 19 20 18 16 16 17 21 25 26
4 3 1 2 3 2 3 5 5 5 4 2 1 2 3 3 3 3 2 2 2 2 3 4 5 5 5 5 5 5 4 5 7 8 8 7 8 8 9 10 10 10 10 11 11 11 12 11 10 10 10 10 12 12 13 14 14 14 14 14 13 14 15 15 14 15 16 15 15 17 18 17 16 16 16 15 14 14 16 18 19 18 16 15 18 22 25
1 3 4 4 3 3 4 5 5 5 4 2 1 1 2 2 3 3 3 3 2 2 3 4 5 6 6 6 5 5 5 5 7 8 7 7 9 9 9 10 10 9 10 11 11 12 13 11 10 11 12 12 12 11 12 13 13 13 14 14 12 14 15 15 14 15 15 15 16 17 18 17 17 16 15 15 15 15 15 15 16 16 15 15 16 19 21
3 5 6 5 5 4 5 4 3 3 3 2 2 2 2 1 2 4 4 4 4 4 4 5 6 6 6 7 6 6 6 6 6 7 7 8 9 10 11 11 10 9 9 11 13 13 13 12 11 12 14 14 14 14 14 14 13 13 13 11 10 12 16 16 14 13 14 15 16 17 17 17 17 16 15 15 16 16 14 13 12 13 13 14 15 16 17
3 6 7 7 6 5 4 3 2 3 2 1 1 2 2 2 4 5 5 4 5 6 6 6 7 7 7 7 6 6 6 6 6 7 7 7 8 8 9 9 9 9 10 12 14 14 15 15 15 14 14 15 15 15 15 15 14 13 13 12 11 13 17 17 14 11 12 14 15 16 16 16 17 16 16 16 16 16 15 14 13 15 15 15 16 16 15
6 6 8 8 6 5 5 4 2 2 2 2 2 3 3 4 5 5 5 5 6 6 6 7 7 7 7 6 6 5 4 5 6 6 6 7 7 7 7 6 6 7 9 11 12 13 14 14 15 14 14 14 15 14 14 13 13 13 13 13 13 15 17 16 13 11 11 12 13 13 14 15 15 15 15 15 15 15 15 15 14 15 15 15 15 15 15
7 6 6 6 5 3 3 4 3 3 3 3 4 4 4 5 5 5 6 6 6 7 7 7 8 8 8 7 6 5 3 2 3 4 5 6 7 6 6 6 6 6 8 9 10 11 11 11 13 14 13 13 13 13 13 12 12 11 12 12 13 15 16 15 13 12 11 11 12 12 13 13 14 14 14 14 14 14 14 14 14 14 15 15 14 14 16
7 5 2 4 2 1 2 3 4 4 4 4 5 4 4 5 6 6 6 6 6 6 7 7 7 8 8 7 7 7 6 5 4 3 4 6 7 6 6 6 6 6 8 8 9 9 9 10 11 12 14 14 13 12 12 12 11 10 11 11 11 13 14 14 14 12 11 11 12 13 13 13 13 13 13 13 13 13 13 13 13 13 13 13 12 12 14
7 5 5 6 2 3 3 3 5 5 5 5 5 5 6 6 6 6 6 6 6 6 6 6 6 7 7 7 6 7 6 6 5 4 2 2 4 6 7 6 6 7 8 8 8 7 8 9 11 12 13 14 13 12 12 12 10 9 10 10 10 11 12 13 13 12 11 12 12 12 13 13 12 12 13 13 12 13 13 13 13 13 12 11 11 10 12
8 7 7 7 5 6 6 5 7 7 5 5 5 6 6 6 7 7 6 6 6 7 6 6 6 6 5 5 5 6 6 5 4 3 2 0 2 6 8 8 8 8 6 6 7 7 7 9 13 13 12 12 12 12 13 13 11 10 10 10 9 9 10 11 12 12 11 11 11 11 12 12 12 11 12 12 11 11 12 12 13 13 12 11 12 11 12
7 5 4 5 5 5 7 8 8 6 6 7 6 7 7 7 7 6 6 6 6 6 5 5 4 3 2 2 3 4 5 4 3 3 4 3 4 5 5 5 6 6 6 7 8 7 5 9 13 12 9 9 10 11 12 15 14 11 10 9 9 8 9 9 11 12 11 11 11 11 11 11 11 11 11 10 10 11 11 11 12 13 12 11 13 14 12
10 6 1 1 1 2 5 7 7 6 8 8 8 8 8 7 6 6 5 6 5 4 3 3 2 1 1 1 1 3 5 3 1 2 4 3 4 5 6 7 8 6 6 7 8 7 7 10 12 8 5 7 9 8 10 14 14 10 8 9 8 8 8 8 10 11 11 11 11 11 11 11 11 11 11 11 11 12 12 12 12 12 12 11 13 13 12
10 6 2 3 2 3 6 6 7 8 9 9 8 7 8 7 6 5 5 4 4 3 3 2 1 1 1 1 2 2 3 3 1 2 4 4 5 6 6 7 8 8 7 6 5 7 10 12 11 7 5 7 8 7 10 14 13 7 5 8 8 8 8 9 9 10 10 10 11 11 11 11 11 11 12 11 11 12 13 12 12 12 11 11 12 13 14
9 6 5 5 4 6 7 6 8 8 9 9 9 8 6 5 4 3 3 2 3 3 3 3 3 2 0 1 1 1 1 1 0 1 3 3 3 4 5 5 6 5 6 6 5 8 11 9 5 4 4 7 7 7 10 14 13 7 5 7 8 8 8 9 9 9 9 9 10 10 11 11 10 10 12 12 12 12 13 13 12 12 11 11 12 14 15
9 7 5 2 4 8 8 8 8 8 8 9 9 8 7 5 3 2 1 1 0 2 3 4 5 4 2 2 2 2 2 3 3 2 2 3 6 4 3 7 7 5 6 6 6 8 10 7 1 1 4 7 7 7 9 13 12 7 5 7 7 7 8 9 9 9 9 9 9 9 10 11 10 10 11 12 12 12 12 13 13 12 11 11 12 14 15
9 8 5 4 6 7 8 9 8 7 8 8 7 7 6 4 2 1 0 0 0 1 3 4 4 3 3 3 4 4 4 4 3 3 4 4 8 9 7 8 8 7 6 4 2 5 6 6 3 3 5 7 8 8 9 10 9 7 6 6 6 7 7 7 7 8 9 9 9 9 10 10 10 10 11 12 13 12 12 12 12 11 11 11 12 14 15
8 7 7 7 8 9 9 8 7 6 6 5 4 3 2 2 1 1 1 2 1 1 2 3 4 4 4 4 4 4 4 4 4 3 4 5 4 6 9 10 8 6 4 2 2 2 6 6 3 3 4 5 6 8 8 8 7 7 7 6 6 7 7 7 6 7 8 8 8 9 9 9 9 9 11 12 12 12 12 12 11 11 11 11 12 13 14
9 9 9 9 9 9 7 7 6 5 4 4 3 2 2 3 4 3 3 4 3 2 3 3 4 4 4 3 3 3 4 4 5 4 2 1 3 6 8 9 7 5 3 1 3 5 6 3 1 2 4 5 6 8 8 7 7 7 7 6 6 7 8 7 6 7 7 7 8 9 9 9 10 10 11 12 12 12 12 11 11 11 12 12 12 13 14
9 10 10 9 7 7 7 7 7 6 5 5 4 3 4 5 5 5 5 5 5 4 4 4 4 5 5 5 4 3 2 3 5 5 6 7 8 8 7 5 5 5 3 2 4 6 5 1 1 2 2 4 7 8 7 6 6 7 7 6 6 7 7 7 7 8 8 8 8 9 9 9 10 11 11 11 11 11 11 10 10 11 12 12 12 12 13
9 9 9 8 7 7 6 6 6 6 6 5 4 5 5 6 6 6 6 7 6 7 7 7 6 5 5 4 3 3 3 4 4 3 5 7 8 8 7 5 5 5 5 4 4 4 3 2 2 2 3 5 7 7 5 6 6 6 6 6 6 6 7 6 7 7 8 8 8 8 8 9 10 10 10 10 10 10 11 10 10 11 11 12 12 12 13
9 8 8 9 8 7 5 5 6 6 5 5 5 6 6 6 7 7 7 7 7 8 8 8 7 7 5 4 5 6 5 3 2 3 3 3 4 6 6 5 6 7 6 5 4 4 3 3 3 3 5 6 6 4 4 4 5 6 6 5 6 6 7 7 7 7 8 8 8 8 9 9 9 10 10 10 10 10 10 10 11 11 11 11 12 12 12
9 9 9 9 9 7 6 6 5 5 5 6 6 6 6 7 7 6 6 6 6 7 7 8 9 8 7 7 8 8 8 8 6 6 4 3 4 5 5 5 6 5 4 4 5 5 5 4 3 5 6 5 3 3 2 3 4 5 5 5 6 6 6 7 7 8 8 8 8 8 9 9 9 9 10 10 10 10 10 10 10 11 11 11 11 11 11
9 9 8 7 7 6 6 5 5 6 7 8 6 5 5 5 5 5 5 5 4 5 7 8 8 8 8 9 9 10 10 10 9 8 6 5 5 5 5 5 4 3 3 4 5 5 3 3 3 5 5 1 1 1 3 3 3 4 5 5 5 5 5 5 6 7 8 8 9 9 9 9 8 8 9 9 9 10 10 11 11 10 9 9 9 9 10
7 7 7 7 6 6 5 6 7 8 8 8 7 6 6 4 4 4 4 2 2 4 6 6 6 7 7 8 8 8 9 9 8 7 7 7 6 6 6 6 5 3 3 4 4 4 4 4 4 5 4 1 1 3 4 4 3 4 4 5 6 5 4 5 7 8 8 8 8 8 8 8 8 8 8 9 9 9 10 10 10 10 9 9 9 9 10
6 6 7 8 8 7 6 7 8 8 7 6 6 6 6 5 5 5 4 0 2 1 5 6 5 4 4 5 6 7 6 6 6 6 6 7 6 6 7 7 5 4 4 3 3 4 5 5 4 5 4 2 2 4 4 4 4 4 4 5 6 5 4 6 8 9 8 8 8 8 8 8 8 8 8 8 9 9 9 9 9 10 10 10 11 10 10
Wind_Direction
273 317 220 194 191 190 193 201 202 202 209 214 213 212 210 209 211 207 191 168 154 150 145 147 142 123 118 115 113 137 170 173 171 169 173 178 185 188 179 168 168 171 170 171 171 165 165 170 171 169 171 175 179 181 177 174 172 169 170 175 172 170 174 177 176 171 166 167 167 162 159 159 160 162 164 163 167 171 172 174 175 175 175 174 174 175 174
213 217 229 215 204 198 197 199 201 202 203 208 215 216 211 210 218 230 218 196 190 179 153 144 135 115 110 108 112 138 167 174 175 178 184 191 197 193 179 170 170 171 170 170 167 164 168 173 172 171 173 176 180 182 178 173 169 168 173 176 172 170 175 177 173 166 163 163 160 157 158 158 160 162 162 162 167 171 173 175 175 176 177 176 178 178 175
229 219 219 221 214 210 208 202 198 201 202 205 213 216 216 217 221 241 251 224 207 203 150 118 111 126 139 145 157 162 171 176 177 181 185 192 199 192 177 171 170 168 171 170 166 166 172 174 174 174 174 175 178 181 178 173 167 168 175 178 174 172 173 173 169 163 160 159 156 156 157 156 159 160 159 163 170 173 175 177 177 178 179 178 181 181 177
219 202 207 225 226 224 224 213 203 201 201 203 209 210 212 217 219 228 239 232 212 197 133 114 135 218 204 188 177 162 178 186 181 183 185 189 194 188 175 170 169 169 172 173 171 170 172 173 174 174 173 173 176 178 176 172 169 173 179 178 173 173 171 168 164 160 157 156 156 157 156 156 159 161 161 166 174 176 178 179 178 179 180 180 181 182 179
241 192 198 225 225 221 224 219 212 208 203 202 205 206 207 213 221 224 227 230 222 184 144 148 180 206 161 155 154 135 197 197 190 191 189 188 190 184 174 170 169 171 173 174 176 173 170 172 174 174 174 176 177 178 176 173 171 176 180 175 171 173 170 165 163 159 156 158 160 158 157 160 163 164 164 168 174 177 177 178 178 178 180 182 181 182 182
262 246 250 236 222 218 211 202 205 210 212 206 204 206 204 206 216 222 230 243 244 226 206 220 235 313 59 325 314 316 276 226 203 196 192 190 186 180 175 171 170 173 174 175 178 175 172 173 174 174 177 178 178 179 177 170 167 173 177 170 167 171 169 165 165 160 155 159 162 161 161 163 164 165 168 170 173 175 174 176 179 179 179 182 182 183 184
276 281 281 240 221 207 152 170 194 203 211 211 210 211 206 205 211 217 230 246 251 253 262 270 285 354 12 268 285 282 259 244 213 194 189 187 183 178 176 173 170 172 174 175 178 176 172 170 171 174 175 173 174 176 173 166 165 171 174 169 167 169 167 167 167 159 152 155 160 163 164 165 166 169 171 170 170 172 173 176 181 180 179 180 182 185 187
295 293 256 242 230 116 118 154 202 201 202 206 212 215 211 209 209 213 224 239 248 255 263 263 269 311 304 275 271 248 240 240 210 188 183 183 181 177 176 174 169 169 171 172 176 177 174 172 171 172 171 167 168 171 168 166 170 173 172 170 169 168 166 169 168 158 153 158 163 164 164 166 170 173 173 171 172 173 172 174 179 181 179 180 182 185 188
299 308 268 265 298 192 156 149 201 204 204 206 207 214 220 215 212 216 224 232 239 245 251 255 258 293 298 282 259 207 207 216 195 177 174 178 178 172 174 175 170 166 165 165 168 167 166 169 170 168 164 162 164 167 167 169 174 174 171 170 170 171 171 171 166 159 159 163 166 169 171 172 173 174 172 171 170 170 167 167 171 176 177 179 182 186 189
300 313 287 263 261 213 127 75 47 295 314 244 210 214 226 217 216 223 224 226 231 234 238 244 247 264 274 273 245 170 177 180 172 166 164 171 173 167 166 171 171 168 161 157 159 160 161 165 163 157 154 157 163 167 169 172 174 175 175 174 174 176 176 172 167 164 164 167 171 177 180 180 177 173 171 171 172 171 169 167 166 170 173 176 181 188 192
286 294 286 275 257 100 48 3 336 311 325 280 211 220 227 212 213 222 224 224 225 224 228 232 225 245 258 257 147 135 155 159 161 162 159 165 169 164 161 165 170 169 160 153 155 162 167 166 161 156 157 163 169 172 173 174 174 175 177 177 177 178 176 172 170 169 169 171 176 181 183 182 176 169 169 173 174 172 169 168 167 167 167 170 178 187 195
282 284 282 271 110 72 332 316 321 303 232 210 203 212 221 216 215 216 218 222 219 219 227 224 204 232 251 263 80 117 146 153 157 158 158 161 164 163 161 162 164 166 164 158 157 164 169 167 164 164 165 169 174 175 177 180 180 178 178 178 179 180 176 172 173 173 171 171 175 179 182 182 176 172 172 173 171 167 166 165 162 160 161 164 170 178 191
280 280 275 259 119 76 315 301 311 358 175 189 198 206 316 328 276 213 206 214 214 215 220 214 219 236 220 94 106 135 146 154 156 154 152 154 159 161 157 154 156 162 166 165 163 164 166 166 168 171 171 174 177 177 178 182 181 175 172 172 171 170 166 164 165 166 167 169 173 179 181 178 172 170 171 170 166 164 164 164 163 166 171 173 175 178 188
271 273 266 259 117 62 321 309 305 174 179 181 186 311 329 325 334 12 178 207 207 208 208 206 218 206 109 118 152 157 154 159 156 151 151 155 159 157 148 147 153 160 163 165 165 166 167 169 171 174 175 178 180 180 181 183 178 170 167 165 164 165 164 161 161 165 170 173 175 178 178 174 169 168 168 168 166 163 164 167 169 172 175 175 175 178 184
269 261 259 263 136 22 333 329 321 176 209 334 345 337 326 322 346 22 41 185 201 208 203 194 190 138 103 130 155 156 159 160 154 151 155 159 157 148 143 148 156 159 161 164 165 167 170 172 172 175 178 179 180 182 184 184 180 175 172 168 166 166 165 163 165 174 178 177 174 173 174 173 172 170 168 165 165 165 167 169 170 172 173 174 176 178 180
318 297 291 310 326 334 340 343 349 28 18 337 311 313 331 347 341 296 151 152 202 207 178 159 145 103 91 121 144 152 156 155 153 152 155 159 154 146 148 155 159 160 163 165 166 168 171 173 173 177 180 177 175 181 180 173 170 170 167 163 160 159 159 159 162 171 176 175 173 173 174 173 171 170 168 165 166 171 174 175 176 177 177 177 178 179 179
284 304 338 48 185 316 5 7 339 358 28 350 323 332 351 355 344 344 104 134 163 158 141 142 131 100 107 127 138 146 150 154 157 156 155 158 154 149 153 157 160 162 163 164 166 167 168 171 173 177 180 176 175 179 173 157 152 155 153 151 152 152 156 158 157 163 169 171 173 174 174 172 170 169 170 171 173 177 180 182 181 178 177 178 181 183 184
265 298 328 354 17 7 36 42 346 5 37 32 2 360 12 16 8 20 82 117 125 124 135 146 134 117 130 135 134 139 148 155 159 159 160 159 154 152 155 157 160 163 160 160 165 166 167 171 175 177 180 178 174 172 164 154 151 152 151 150 151 154 158 158 157 160 164 167 171 174 174 172 170 170 171 174 178 181 181 181 180 177 179 184 187 190 193
264 279 338 22 23 357 8 36 30 36 49 45 24 10 18 27 27 32 57 85 100 111 130 142 136 131 131 130 133 140 147 153 159 163 163 161 157 156 154 155 161 164 159 160 166 166 167 174 179 179 179 179 175 170 164 159 156 156 155 153 154 158 159 156 155 161 165 168 170 172 172 172 173 174 175 177 180 180 179 179 178 179 183 191 195 195 193
292 42 82 102 90 8 347 18 37 39 44 46 34 18 18 29 37 39 42 52 64 73 80 101 115 116 112 119 133 141 143 147 156 163 164 162 160 156 150 153 162 166 162 162 165 167 170 175 177 179 181 179 172 166 163 161 155 152 152 153 155 158 157 154 155 161 166 170 170 169 172 175 177 175 176 178 180 181 182 182 180 183 192 199 201 195 185
22 46 27 145 137 114 9 46 49 27 21 34 41 33 25 25 29 34 39 40 41 46 52 64 81 89 91 107 126 134 137 140 145 157 167 163 157 155 151 154 166 171 164 160 160 163 170 175 174 176 180 174 162 157 160 160 152 148 150 151 152 154 154 154 158 161 164 168 170 171 175 182 186 184 182 183 184 186 190 191 189 191 196 197 194 189 185
25 12 326 320 79 89 322 29 15 360 6 28 42 41 40 38 28 22 28 34 35 39 46 56 67 72 71 80 101 112 118 127 135 149 163 159 154 155 151 153 168 175 164 157 158 161 170 177 176 174 174 168 160 160 162 159 153 151 152 150 149 152 151 153 161 164 165 170 176 179 182 188 193 191 187 189 193 194 198 199 198 197 195 190 187 187 187
112 221 281 318 337 306 311 356 353 342 338 6 47 47 40 44 43 30 24 26 29 36 42 49 63 77 78 77 84 90 94 104 120 138 151 152 153 156 152 155 172 178 165 160 164 167 172 178 175 169 167 166 166 167 165 160 157 156 154 151 151 155 156 161 168 169 170 177 183 185 187 192 193 185 178 186 196 200 200 199 201 200 196 193 193 189 185
282 154 152 172 234 257 280 48 17 321 309 333 44 56 39 36 46 48 40 25 17 30 41 41 46 58 67 69 74 83 95 103 109 119 134 144 150 152 152 161 177 180 170 167 170 171 175 180 175 168 166 167 170 169 164 160 157 156 155 155 157 160 162 168 172 171 170 175 180 182 185 189 189 183 175 179 191 200 200 199 203 205 203 201 202 197 192
306 53 110 150 204 239 236 152 156 208 267 311 34 55 47 37 32 39 56 49 18 23 41 44 43 47 52 61 72 82 88 94 101 108 116 130 144 150 157 172 181 179 173 172 172 174 180 183 177 170 169 172 172 168 161 158 157 157 159 161 161 160 161 164 171 174 174 175 178 183 185 186 185 181 178 179 185 189 188 190 199 205 207 207 207 203 201
303 325 81 142 171 212 224 193 168 167 200 182 76 70 60 42 8 16 55 63 39 28 42 52 56 57 56 62 74 80 84 94 106 113 114 122 141 155 168 178 178 173 173 174 175 178 182 181 174 171 172 174 172 164 159 159 158 159 163 165 164 164 164 164 170 176 179 181 187 189 187 186 187 184 185 189 187 176 168 171 184 197 205 209 209 207 205
306 299 274 171 177 194 193 189 191 164 108 92 89 88 83 74 44 47 57 58 52 48 54 64 73 77 76 77 81 87 105 124 130 121 118 128 144 158 167 167 164 164 170 174 173 172 171 167 167 171 175 174 170 165 162 161 161 161 164 166 163 163 165 166 168 172 175 180 187 188 184 184 188 186 185 189 184 173 171 175 181 189 199 205 208 209 207
276 276 288 230 217 202 171 167 176 161 124 76 68 96 105 94 88 89 87 90 93 81 73 80 89 92 95 102 106 112 130 141 127 114 119 127 130 137 147 151 153 160 171 171 163 156 152 153 161 172 177 174 169 165 161 160 161 160 162 163 160 158 163 167 167 168 173 177 180 182 183 185 189 189 189 190 183 175 179 186 189 194 200 201 204 210 212
259 263 255 206 210 211 182 178 175 155 131 102 89 133 132 118 108 110 117 118 117 109 93 86 85 86 91 105 114 117 122 120 110 110 120 122 116 120 133 141 146 155 162 156 148 151 157 158 158 164 167 164 160 157 156 160 162 162 166 173 171 162 165 172 170 169 173 176 178 182 186 187 188 189 192 196 192 185 189 195 197 199 199 190 191 201 209
236 264 262 247 231 224 223 213 183 147 131 138 153 116 103 121 129 118 98 83 82 91 88 80 77 78 78 83 93 100 105 110 110 116 125 128 124 128 138 142 144 153 157 151 150 160 164 157 149 152 156 156 157 160 163 167 171 173 177 182 174 160 162 170 171 170 172 173 175 181 185 185 186 187 189 191 192 193 199 202 198 197 197 189 186 191 198
200 257 260 261 260 239 223 221 192 151 139 141 142 110 78 99 116 101 88 77 67 65 66 67 69 67 63 67 80 95 104 111 117 122 128 131 132 141 151 154 155 162 165 160 159 159 155 152 159 166 164 162 167 173 174 173 175 177 179 178 165 158 164 169 168 168 171 170 170 177 184 189 193 194 192 189 187 191 198 199 194 196 202 203 203 200 194
172 264 258 252 254 235 209 210 195 163 143 113 119 114 92 88 92 85 79 73 67 64 62 60 59 57 55 58 65 80 97 110 118 126 134 137 140 148 157 160 160 163 164 162 161 161 162 169 178 178 170 168 172 175 176 176 176 176 180 180 170 165 171 173 167 163 167 167 167 174 184 192 197 199 199 198 194 194 200 203 201 204 209 214 215 208 193
178 230 239 234 234 223 206 204 189 169 163 143 118 94 77 79 83 78 74 74 69 63 58 54 51 48 48 50 52 60 86 115 126 131 137 143 148 150 153 155 156 158 159 160 161 165 170 172 169 164 165 171 173 172 174 180 183 181 183 181 167 161 170 175 169 162 165 169 172 179 188 195 199 201 202 204 203 201 205 209 209 210 214 217 215 208 197
204 216 221 215 214 222 214 193 184 201 204 154 115 98 92 89 84 78 75 73 69 63 58 52 48 45 43 45 49 47 50 91 119 129 138 145 148 149 150 153 150 146 150 157 162 168 172 164 152 152 162 170 168 164 166 173 177 180 182 176 157 151 162 171 169 168 172 173 176 182 187 192 199 202 204 208 209 205 204 208 211 214 217 216 215 214 208
217 220 163 118 124 237 245 215 212 216 194 152 130 123 116 101 89 83 78 73 71 66 58 50 45 43 39 39 42 43 45 51 58 74 118 138 143 147 156 164 161 155 157 163 165 168 169 159 152 158 170 173 168 165 165 168 172 174 177 172 152 144 156 169 173 175 178 175 175 181 184 187 194 198 199 205 209 204 200 204 207 212 216 216 217 219 212
206 193 115 94 113 223 220 224 243 232 190 154 141 132 123 114 109 102 90 78 70 60 51 48 46 42 39 37 37 41 46 52 56 54 55 100 138 149 154 160 161 159 160 164 163 160 157 154 154 163 173 178 178 173 168 171 175 172 168 164 152 146 156 167 170 173 177 176 178 183 185 185 188 189 191 197 203 202 203 206 205 208 214 214 213 215 208
187 167 138 135 177 204 201 211 228 218 175 147 144 136 127 120 112 103 92 81 70 54 42 41 40 37 41 46 46 49 48 46 60 87 90 308 177 161 160 163 165 161 156 161 169 169 159 154 158 162 169 179 184 179 172 171 175 173 166 164 161 159 164 169 171 175 180 181 181 181 179 179 183 185 188 195 200 201 203 204 202 204 209 210 213 220 210
130 109 117 146 169 199 207 206 205 186 153 145 144 134 125 120 112 104 93 79 67 54 43 43 39 34 47 58 63 76 75 56 57 113 147 186 193 174 158 150 155 158 158 162 165 161 152 157 165 170 176 180 178 176 175 173 172 174 178 179 176 174 177 179 179 180 181 181 181 181 180 181 183 183 185 194 200 201 200 200 199 201 205 208 217 223 211
103 80 33 152 67 297 233 193 170 155 148 144 134 124 121 119 111 101 91 77 62 47 41 36 18 2 65 108 129 108 91 67 56 163 164 177 177 148 108 77 67 78 110 138 147 141 143 159 167 173 185 181 171 170 179 179 174 176 192 200 196 193 195 196 190 184 182 183 184 183 184 186 186 187 193 203 208 207 203 201 202 205 209 213 219 220 211
106 99 132 137 93 293 250 187 146 139 140 134 128 127 128 125 117 107 94 78 62 49 34 7 310 229 174 195 191 131 85 53 353 200 183 181 179 163 132 93 71 73 86 96 116 139 150 160 166 172 184 180 166 159 175 183 182 183 199 207 207 205 205 207 202 190 183 183 184 186 192 195 192 192 198 204 208 210 209 208 206 204 201 204 213 220 220
114 121 130 132 165 219 214 166 134 131 131 125 123 123 121 123 127 116 84 58 59 65 47 10 357 10 49 218 210 170 138 103 104 188 187 187 205 203 167 116 84 89 99 87 97 138 152 161 179 196 183 171 158 150 167 181 187 193 204 208 214 214 208 207 206 196 187 187 187 189 196 199 195 193 199 203 205 208 210 211 210 203 194 197 212 224 227
127 123 103 96 213 204 173 138 130 133 125 114 111 109 101 98 104 102 74 12 41 90 79 58 43 42 63 116 129 158 186 171 156 176 166 57 25 10 125 116 98 107 122 114 126 155 158 154 145 51 104 132 153 170 176 179 183 195 204 204 209 211 204 202 203 200 196 197 197 195 198 201 199 196 198 201 203 204 205 209 211 207 202 206 217 224 226
119 116 123 188 202 169 133 122 128 129 118 110 110 108 100 92 88 102 136 219 293 100 114 117 115 118 131 131 123 128 146 148 153 184 173 95 46 32 59 98 108 118 120 117 185 194 157 124 108 106 110 123 148 170 176 175 182 197 203 197 200 205 199 196 203 206 201 199 203 204 204 204 200 195 195 200 205 206 205 207 209 209 209 212 217 220 222
131 147 169 176 153 127 120 127 133 129 123 122 124 123 114 104 105 119 103 90 75 90 117 130 136 139 140 134 125 123 130 132 127 148 179 170 125 62 62 76 90 104 98 46 345 101 96 81 81 173 176 167 161 162 168 178 191 203 203 197 202 209 203 196 205 212 205 199 204 207 203 197 192 190 193 200 206 206 204 206 211 216 217 217 215 215 218
157 154 148 142 135 132 136 137 129 127 132 125 109 94 101 108 111 111 105 101 104 109 112 121 134 137 126 107 86 57 43 60 72 64 54 127 121 95 79 73 74 85 91 30 36 72 77 53 336 193 192 201 184 171 177 197 212 215 214 212 214 220 219 209 208 214 212 205 207 210 208 204 202 201 201 203 205 205 205 209 215 221 221 217 213 213 214
145 133 131 137 141 139 132 122 118 123 128 120 109 104 110 116 120 120 111 104 103 104 104 108 123 133 127 115 110 101 78 75 74 60 50 58 74 85 92 96 98 98 94 71 62 68 66 50 181 149 168 191 180 176 195 221 224 221 224 223 219 225 229 221 212 214 216 214 214 216 214 211 210 209 205 201 202 207 210 213 217 219 219 217 214 213 213
131 132 134 135 127 119 118 121 124 125 123 121 120 122 125 128 125 115 107 103 100 96 95 94 102 119 126 116 101 106 118 122 121 100 72 72 80 85 86 100 122 117 92 67 60 69 77 95 116 122 147 163 167 182 218 234 224 221 226 223 216 220 225 221 216 216 216 213 212 213 212 210 211 212 208 202 202 207 212 214 216 217 216 214 213 215 216
140 138 130 125 121 121 125 130 129 129 130 130 128 127 131 131 123 116 116 117 107 97 93 90 91 94 90 62 43 38 31 35 88 115 100 88 95 92 83 87 106 111 99 77 63 60 61 63 73 100 131 147 163 202 234 227 219 224 225 216 212 215 215 212 212 213 211 208 207 208 210 209 208 208 207 208 210 211 211 212 217 219 216 214 215 217 218
139 129 122 124 128 132 135 137 136 132 129 127 126 130 134 134 128 123 122 119 110 103 99 95 92 90 85 78 73 61 43 38 58 85 93 89 91 93 96 103 106 102 94 84 74 60 39 31 69 120 140 156 202 239 218 198 216 226 218 210 215 217 212 210 211 209 205 204 205 207 208 207 206 207 209 211 213 214 212 211 214 218 217 216 217 219 220
135 129 129 133 134 135 136 131 124 127 133 134 134 137 139 136 133 133 132 128 125 122 114 109 108 107 97 87 84 82 74 68 71 77 81 83 84 84 92 103 104 89 77 86 87 76 52 51 101 128 136 140 285 210 165 167 201 209 203 204 207 198 186 192 202 200 197 202 207 209 207 204 205 211 215 215 213 213 213 213 215 218 219 219 220 221 223
140 136 133 126 117 113 111 107 105 116 130 134 132 135 142 141 131 131 134 133 132 135 128 118 114 116 111 102 96 92 86 81 79 78 78 80 84 90 99 107 114 129 140 127 112 110 113 117 133 153 157 127 118 151 161 170 184 187 191 203 203 192 186 199 207 205 203 206 208 206 205 205 206 210 214 217 217 217 216 217 219 222 222 222 225 228 231
95 96 113 127 126 117 114 116 112 110 114 120 122 131 147 155 144 138 143 261 310 176 151 136 120 118 124 121 112 102 92 86 82 82 83 86 91 103 117 124 130 151 168 166 144 121 120 127 154 187 203 204 165 160 172 186 185 176 183 203 206 199 195 204 206 205 205 207 209 208 206 209 214 217 217 219 221 219 216 216 219 221 222 222 222 223 226